Weather History for Alamogordo, NM

Change the Weather History Date:

Sunday, March 2, 2014

  Actual Average Record
Temperature  
Mean Temperature 53 °F -  
Max Temperature 62 °F 65 °F 79 °F (1974)
Min Temperature 39 °F 37 °F 19 °F (1998)
Degree Days  
Heating Degree Days 12    
Growing Degree Days 3 (Base 50)    
Moisture  
Dew Point 36 °F    
Average Humidity 58    
Maximum Humidity 93    
Minimum Humidity 26    
Precipitation  
Precipitation 0.10 in - - ()
Sea Level Pressure  
Sea Level Pressure 30.05 in    
Wind  
Wind Speed 12 mph (SW)    
Max Wind Speed 17 mph    
Max Gust Speed 24 mph    
Visibility 10 miles    
Events      
Averages and records for this station are not official NWS values.
T = Trace of Precipitation, MM = Missing Value Source: NWS Daily Summary

Daily Weather History Graph

Daily Weather History Graph

Search for Another Location

Airport:

Trip Planner

Search our weather history database for the weather conditions in past years. The results will help you decide how hot, cold, wet, or windy it might be!

Date:

Astronomy

Mar. 02, 2014 Rise Set
Actual Time 6:30 AM MST 6:02 PM MST
Civil Twilight 6:05 AM MST 6:26 PM MST
Nautical Twilight 5:37 AM MST 6:55 PM MST
Astronomical Twilight 5:08 AM MST 7:23 PM MST
Moon 7:10 AM MST (3/2) 7:52 PM MST (3/2)
Length of Visible Light 12h 20m
Length of Day
11h 31m
Waxing Crescent, 3% of the Moon is Illuminated
Mar 2
Waxing Crescent
Mar 8
First Quarter
Mar 16
Full
Mar 23
Last Quarter
Mar 30
New

Hourly Weather History & Observations

Time (MST) Temp. Windchill Dew Point Humidity Pressure Visibility Wind Dir Wind Speed Gust Speed Precip Events Conditions
12:15 AM 53.6 °F - 44.6 °F 72% 30.00 in 10.0 mi North - - N/A   Overcast
12:35 AM 51.8 °F - 42.8 °F 71% 30.00 in 10.0 mi North - - N/A   Overcast
12:55 AM 53.6 °F - 42.8 °F 67% 30.01 in 10.0 mi North - - N/A   Overcast
1:15 AM 51.8 °F - 42.8 °F 71% 30.00 in 10.0 mi North - - N/A   Overcast
1:35 AM 53.6 °F - 42.8 °F 67% 29.99 in 10.0 mi North - - N/A   Overcast
1:55 AM 53.6 °F - 42.8 °F 67% 29.99 in 10.0 mi North - - N/A   Overcast
2:15 AM 53.6 °F - 44.6 °F 72% 29.99 in 10.0 mi North - - N/A   Overcast
2:35 AM 50.0 °F - 44.6 °F 82% 30.01 in 10.0 mi North - - N/A   Overcast
2:55 AM 48.2 °F - 44.6 °F 87% 30.00 in 7.0 mi North - - 0.01 in   Mostly Cloudy
3:15 AM 48.2 °F - 44.6 °F 87% 30.01 in 5.0 mi North - - 0.01 in   Overcast
3:35 AM 46.4 °F - 44.6 °F 93% 30.02 in 8.0 mi North - - 0.03 in   Mostly Cloudy
3:55 AM 46.4 °F - 44.6 °F 93% 30.05 in 5.0 mi North - - 0.03 in   Overcast
4:15 AM 46.4 °F - 42.8 °F 87% 30.04 in 5.0 mi North - - 0.01 in   Overcast
4:35 AM 46.4 °F - 42.8 °F 87% 30.05 in 4.0 mi North - - 0.04 in   Overcast
4:55 AM 46.4 °F - 41.0 °F 81% 30.05 in 7.0 mi North - - 0.05 in   Overcast
5:10 AM 46.4 °F - 41.0 °F 81% 30.02 in 7.0 mi North - - 0.01 in   Overcast
5:35 AM 46.4 °F - 41.0 °F 81% 30.04 in 10.0 mi North - - 0.01 in   Mostly Cloudy
5:55 AM 46.4 °F - 41.0 °F 81% 30.05 in 10.0 mi North - - 0.01 in   Scattered Clouds
6:15 AM 46.4 °F - 41.0 °F 81% 30.04 in 10.0 mi North - - N/A   Scattered Clouds
6:35 AM 46.4 °F 41.1 °F 41.0 °F 81% 30.05 in 10.0 mi SSE 11.5 mph - N/A   Partly Cloudy
6:55 AM 46.4 °F 40.4 °F 41.0 °F 81% 30.04 in 10.0 mi SSE 13.8 mph - N/A   Partly Cloudy
7:15 AM 46.4 °F 40.7 °F 41.0 °F 81% 30.04 in 10.0 mi SSE 12.7 mph - N/A   Clear
7:35 AM 48.2 °F - 41.0 °F 76% 30.04 in 10.0 mi SSE 11.5 mph - N/A   Clear
7:55 AM 48.2 °F - 41.0 °F 76% 30.04 in 10.0 mi South 10.4 mph - N/A   Clear
8:15 AM 46.4 °F 41.1 °F 41.0 °F 81% 30.04 in 10.0 mi South 11.5 mph 16.1 mph N/A   Clear
8:35 AM 48.2 °F - 41.0 °F 76% 30.04 in 10.0 mi South 12.7 mph 19.6 mph N/A   Clear
8:55 AM 48.2 °F - 42.8 °F 82% 30.04 in 10.0 mi SSE 17.3 mph 21.9 mph N/A   Clear
9:15 AM 50.0 °F - 41.0 °F 71% 30.05 in 10.0 mi SSE 16.1 mph - N/A   Clear
9:35 AM 51.8 °F - 42.8 °F 71% 30.06 in 10.0 mi SSE 17.3 mph 23.0 mph N/A   Clear
9:55 AM 51.8 °F - 42.8 °F 71% 30.07 in 10.0 mi SSE 15.0 mph 24.2 mph N/A   Partly Cloudy
10:15 AM 51.8 °F - 41.0 °F 67% 30.07 in 10.0 mi SSE 15.0 mph 18.4 mph N/A   Partly Cloudy
10:35 AM 55.4 °F - 41.0 °F 58% 30.06 in 10.0 mi SE 17.3 mph - N/A   Mostly Cloudy
10:55 AM 55.4 °F - 41.0 °F 58% 30.06 in 10.0 mi SSE 16.1 mph 21.9 mph N/A   Partly Cloudy
11:15 AM 55.4 °F - 39.2 °F 54% 30.06 in 10.0 mi SE 12.7 mph - N/A   Clear
11:35 AM 57.2 °F - 39.2 °F 51% 30.05 in 10.0 mi South 13.8 mph 20.7 mph N/A   Partly Cloudy
11:55 AM 57.2 °F - 37.4 °F 48% 30.05 in 10.0 mi SW 16.1 mph 20.7 mph N/A   Scattered Clouds
12:15 PM 59.0 °F - 37.4 °F 45% 30.05 in 10.0 mi SSW 13.8 mph 23.0 mph N/A   Scattered Clouds
12:35 PM 57.2 °F - 32.0 °F 38% 30.05 in 10.0 mi SW 8.1 mph 20.7 mph N/A   Mostly Cloudy
12:55 PM 57.2 °F - 33.8 °F 41% 30.04 in 10.0 mi West 16.1 mph 21.9 mph N/A   Overcast
1:15 PM 59.0 °F - 32.0 °F 36% 30.04 in 10.0 mi West 8.1 mph 20.7 mph N/A   Overcast
1:35 PM 60.8 °F - 32.0 °F 34% 30.04 in 10.0 mi WNW 10.4 mph 19.6 mph N/A   Overcast
1:55 PM 59.0 °F - 32.0 °F 36% 30.04 in 10.0 mi West 11.5 mph 19.6 mph N/A   Mostly Cloudy
2:15 PM 60.8 °F - 32.0 °F 34% 30.04 in 10.0 mi WSW 15.0 mph 19.6 mph N/A   Mostly Cloudy
2:35 PM 59.0 °F - 32.0 °F 36% 30.04 in 10.0 mi WSW 6.9 mph - N/A   Scattered Clouds
2:55 PM 60.8 °F - 32.0 °F 34% 30.04 in 10.0 mi West 9.2 mph - N/A   Mostly Cloudy
3:15 PM 62.6 °F - 28.4 °F 27% 30.03 in 10.0 mi SW 11.5 mph 20.7 mph N/A   Scattered Clouds
3:35 PM 62.6 °F - 26.6 °F 26% 30.03 in 10.0 mi NW 8.1 mph - N/A   Scattered Clouds
3:55 PM 62.6 °F - 26.6 °F 26% 30.03 in 10.0 mi WNW 11.5 mph 20.7 mph N/A   Scattered Clouds
4:15 PM 62.6 °F - 28.4 °F 27% 30.04 in 10.0 mi NW 10.4 mph 19.6 mph N/A   Partly Cloudy
4:35 PM 62.6 °F - 26.6 °F 26% 30.04 in 10.0 mi WNW 12.7 mph 16.1 mph N/A   Partly Cloudy
4:55 PM 62.6 °F - 26.6 °F 26% 30.04 in 10.0 mi WNW 10.4 mph 17.3 mph N/A   Partly Cloudy
5:15 PM 62.6 °F - 26.6 °F 26% 30.04 in 10.0 mi West 11.5 mph 16.1 mph N/A   Clear
5:35 PM 60.8 °F - 28.4 °F 29% 30.05 in 10.0 mi West 9.2 mph - N/A   Clear
5:55 PM 59.0 °F - 28.4 °F 31% 30.06 in 10.0 mi West 6.9 mph - N/A   Clear
6:10 PM 57.2 °F - 28.4 °F 33% 30.06 in 10.0 mi West 6.9 mph - N/A   Clear
6:35 PM 53.6 °F - 28.4 °F 38% 30.07 in 10.0 mi North - - N/A   Clear
6:55 PM 50.0 °F - 30.2 °F 47% 30.08 in 10.0 mi North - - N/A   Clear
7:15 PM 53.6 °F - 28.4 °F 38% 30.08 in 10.0 mi North - - N/A   Clear
7:35 PM 51.8 °F - 30.2 °F 44% 30.09 in 10.0 mi North - - N/A   Clear
7:55 PM 48.2 °F - 30.2 °F 50% 30.10 in 10.0 mi North - - N/A   Clear
8:15 PM 50.0 °F - 30.2 °F 47% 30.10 in 10.0 mi North - - N/A   Clear
8:35 PM 50.0 °F - 28.4 °F 43% 30.11 in 10.0 mi North - - N/A   Clear
8:55 PM 48.2 °F - 32.0 °F 54% 30.12 in 10.0 mi North - - N/A   Clear
9:15 PM 48.2 °F - 32.0 °F 54% 30.13 in 10.0 mi North - - N/A   Clear
9:35 PM 46.4 °F - 32.0 °F 57% 30.13 in 10.0 mi North - - N/A   Clear
9:55 PM 44.6 °F - 32.0 °F 61% 30.13 in 10.0 mi North - - N/A   Clear
10:15 PM 46.4 °F - 32.0 °F 57% 30.13 in 10.0 mi North - - N/A   Clear
10:35 PM 44.6 °F - 32.0 °F 61% 30.13 in 10.0 mi North - - N/A   Clear
10:50 PM 44.6 °F - 32.0 °F 61% 30.12 in 10.0 mi North - - N/A   Clear
11:15 PM 46.4 °F - 32.0 °F 57% 30.13 in 10.0 mi North - - N/A   Clear
11:35 PM 46.4 °F - 32.0 °F 57% 30.13 in 10.0 mi North - - N/A   Clear
11:55 PM 39.2 °F - 32.0 °F 75% 30.13 in 10.0 mi North - - N/A   Clear